Find DirecTV 15

NORAD ID: 40663 Int'l Des: 2015-026 Owner: DTVA Country: US operational
HEOCIRCULARGSOGEO

Current View

Loading 3D Globe...

About DirecTV 15

Description loading...

Upcoming Passes

Passes for default location (London). Set your location on the main map for personalized predictions.

Altitude History

Loading altitude history...

Two-Line Element Set

1 40663U 15026A 26149.48462786 .00000000 00000-0 00000+0 0 9999
2 40663 0.0213 344.5513 0000407 150.2025 183.8405 1.00270658 40279
Epoch: May 29, 2026 • Age: 14 hours

Current Status

Altitude 35785.1 km
Velocity 3.07 km/s
Sub-Earth Point -0.02°S, 102.89°W
Launch Date May 27, 2015
Age 11 years
Type other

Technical Details

Classification Payload
Mass 6205.00 kg
Dry Mass 3381.00 kg
Total Mass 6205.00 kg
Length 6.20 m
Diameter 2.60 m
Span 45.00 m
Shape Box + 2 pan
Manufacturer ADST
Bus Type Eurostar 3000
Phase Status Renamed
Owner/State DTVA/US

Most Searched